NOAA 16 DEB, 41652

Orbit data source: Space-Track

NOAA 16 DEB, 41652 is space debris in SSO originally from a launch on Thu, 21 Sep 2000 UTC launched from the Air Force Western Test Range (AFWTR). Debris objects in space refer to the collection of defunct objects orbiting the Earth. Examples of debris include non-operational satellites, rocket bodies, and fragments generated from explosions, collisions, or faulty payload assembly.

Loading next visibility...
Identifier
41652, 2000-055NR
Orbit
SSO
Country
Flag of USUS
Related business
Manufacturer
Unknown
Mission
Spacecraft
Bus & Motor
Unknown
Mass
Unknown
Launch date (UTC)
2000-09-21 (25 years ago)
Launch vehicle
Unknown
Launch site
Air Force Western Test Range (AFWTR)
Object type
Payload
Rocket body
Debris
Shape & HBR
Unknown shape, 0.1 m
Radar Cross Section
Small (<0.1 m²)

Expand to show TLE details & history
Last TLE update: 12 hours ago

TLE from 12 hours ago
0 NOAA 16 DEB
1 41652U 00055NR  25287.75751684  .00013742  00000-0  43711-2 0  9990
2 41652  98.8786  29.0379 0032648  89.1144 271.3783 14.39673133489615
Epoch: 2025-10-14T18:10Z
TLE epoch observation values (Epoch: 2025-10-14T18:10:49.454Z)
Latitude
-0.00008°
Longitude
92.79049°
Altitude
762.03 km
Speed
7.474 km/s
True Right ascension
01h 56m 09s
True Declination
0° 00' 00"
Sunlit
Object was in full shadow at epoch
Visualization orbit readout
Latitude
Unknown
Longitude
Unknown
Altitude
Unknown
Speed
Unknown
Apparent Right ascension
Unknown
Apparent Declination
Unknown
Sunlit
N/A
Visualization observer readout
Local Sidereal Time
00:34:22
Azimuth
Unknown
Elevation
Unknown
Doppler factor
Unknown
Orbital elements
Apogee altitude
780.013 km
Perigee altitude
733.425 km
Semi-major axis
7,134.856 km
Eccentricity
0.00326
Inclination
98.8786°
RAAN
29.0379°
Arg. of periapsis
89.1144°
True anomaly
271.00426°
Mean anomaly
271.3783°
Eccentric anomaly
271.19128°
Mean motion
3.60135 °/min
Orbital period
99.96 mins
BSTAR
0.0043711
Loading maneuver chart data...
Computing Atmospheric mass density...
Loading historical data...
Loading historical data...
Loading historical data...
Loading historical data...
Loading historical data...
Loading historical data...
Loading historical data...

Documentation

Showing up to 5 results
|